Year,Month,Day,Hour,Minute,Value (Times are PST for temperature in C)
2016,07,22,00,00,20.60
2016,07,22,00,01,20.90
2016,07,22,00,02,21.10
2016,07,22,00,03,21.30
2016,07,22,00,04,21.50
2016,07,22,00,05,21.70
2016,07,22,00,06,21.80
2016,07,22,00,07,22.00
2016,07,22,00,08,22.00
2016,07,22,00,09,22.20
2016,07,22,00,10,22.20
2016,07,22,00,11,22.30
2016,07,22,00,12,22.30
2016,07,22,00,13,22.40
2016,07,22,00,14,22.40
2016,07,22,00,15,22.40
2016,07,22,00,16,22.50
2016,07,22,00,17,22.50
2016,07,22,00,18,22.50
2016,07,22,00,19,22.50
2016,07,22,00,20,22.50
2016,07,22,00,21,22.50
2016,07,22,00,22,22.50
2016,07,22,00,23,22.60
2016,07,22,00,24,22.50
2016,07,22,00,25,22.50
2016,07,22,00,26,22.50
2016,07,22,00,27,22.50
2016,07,22,00,28,22.40
2016,07,22,00,29,22.40
2016,07,22,00,30,22.30
2016,07,22,00,31,22.20
2016,07,22,00,32,22.10
2016,07,22,00,33,22.00
2016,07,22,00,34,21.90
2016,07,22,00,35,21.80
2016,07,22,00,36,21.80
2016,07,22,00,37,21.80
2016,07,22,00,38,21.70
2016,07,22,00,39,21.70
2016,07,22,00,40,21.70
2016,07,22,00,41,21.70
2016,07,22,00,42,21.60
2016,07,22,00,43,21.60
2016,07,22,00,44,21.50
2016,07,22,00,45,21.50
2016,07,22,00,46,21.40
2016,07,22,00,47,21.40
2016,07,22,00,48,21.30
2016,07,22,00,49,21.30
2016,07,22,00,50,21.20
2016,07,22,00,51,21.20
2016,07,22,00,52,21.20
2016,07,22,00,53,21.20
2016,07,22,00,54,21.30
2016,07,22,00,55,21.30
2016,07,22,00,56,21.30
2016,07,22,00,57,21.40
2016,07,22,00,58,21.40
2016,07,22,00,59,21.50
2016,07,22,01,00,21.50
2016,07,22,01,01,21.50
2016,07,22,01,02,21.60
2016,07,22,01,03,21.60
2016,07,22,01,04,21.70
2016,07,22,01,05,21.80
2016,07,22,01,06,21.80
2016,07,22,01,07,21.90
2016,07,22,01,08,21.90
2016,07,22,01,09,21.90
2016,07,22,01,10,21.90
2016,07,22,01,11,21.90
2016,07,22,01,12,22.00
2016,07,22,01,13,22.00
2016,07,22,01,14,22.00
2016,07,22,01,15,22.00
2016,07,22,01,16,22.00
2016,07,22,01,17,22.00
2016,07,22,01,18,22.00
2016,07,22,01,19,22.00
2016,07,22,01,20,21.90
2016,07,22,01,21,21.90
2016,07,22,01,22,21.90
2016,07,22,01,23,21.90
2016,07,22,01,24,21.90
2016,07,22,01,25,21.90
2016,07,22,01,26,21.90
2016,07,22,01,27,21.80
2016,07,22,01,28,21.80
2016,07,22,01,29,21.80
2016,07,22,01,30,21.80
2016,07,22,01,31,21.70
2016,07,22,01,32,21.70
2016,07,22,01,33,21.70
2016,07,22,01,34,21.60
2016,07,22,01,35,21.60
2016,07,22,01,36,21.60
2016,07,22,01,37,21.50
2016,07,22,01,38,21.50
2016,07,22,01,39,21.50
2016,07,22,01,40,21.50
2016,07,22,01,41,21.50
2016,07,22,01,42,21.40
2016,07,22,01,43,21.40
2016,07,22,01,44,21.40
2016,07,22,01,45,21.30
2016,07,22,01,46,21.30
2016,07,22,01,47,21.30
2016,07,22,01,48,21.30
2016,07,22,01,49,21.20
2016,07,22,01,50,21.20
2016,07,22,01,51,21.20
2016,07,22,01,52,21.10
2016,07,22,01,53,21.10
2016,07,22,01,54,21.10
2016,07,22,01,55,21.10
2016,07,22,01,56,21.00
2016,07,22,01,57,21.00
2016,07,22,01,58,21.00
2016,07,22,01,59,21.00
2016,07,22,02,00,20.90
2016,07,22,02,01,20.90
2016,07,22,02,02,20.90
2016,07,22,02,03,20.90
2016,07,22,02,04,20.90
2016,07,22,02,05,20.80
2016,07,22,02,06,20.80
2016,07,22,02,07,20.80
2016,07,22,02,08,20.80
2016,07,22,02,09,20.80
2016,07,22,02,10,20.80
2016,07,22,02,11,20.80
2016,07,22,02,12,20.70
2016,07,22,02,13,20.70
2016,07,22,02,14,20.70
2016,07,22,02,15,20.70
2016,07,22,02,16,20.60
2016,07,22,02,17,20.60
2016,07,22,02,18,20.60
2016,07,22,02,19,20.50
2016,07,22,02,20,20.50
2016,07,22,02,21,20.50
2016,07,22,02,22,20.40
2016,07,22,02,23,20.40
2016,07,22,02,24,20.40
2016,07,22,02,25,20.40
2016,07,22,02,26,20.30
2016,07,22,02,27,20.30
2016,07,22,02,28,20.30
2016,07,22,02,29,20.30
2016,07,22,02,30,20.30
2016,07,22,02,31,20.30
2016,07,22,02,32,20.20
2016,07,22,02,33,20.20
2016,07,22,02,34,20.20
2016,07,22,02,35,20.10
2016,07,22,02,36,20.10
2016,07,22,02,37,20.10
2016,07,22,02,38,20.00
2016,07,22,02,39,20.00
2016,07,22,02,40,19.90
2016,07,22,02,41,19.90
2016,07,22,02,42,19.90
2016,07,22,02,43,19.90
2016,07,22,02,44,19.80
2016,07,22,02,45,19.80
2016,07,22,02,46,19.80
2016,07,22,02,47,19.80
2016,07,22,02,48,19.70
2016,07,22,02,49,19.70
2016,07,22,02,50,19.70
2016,07,22,02,51,19.70
2016,07,22,02,52,19.70
2016,07,22,02,53,19.70
2016,07,22,02,54,19.70
2016,07,22,02,55,19.70
2016,07,22,02,56,19.70
2016,07,22,02,57,19.70
2016,07,22,02,58,19.70
2016,07,22,02,59,19.70
2016,07,22,03,00,19.70
2016,07,22,03,01,19.70
2016,07,22,03,02,19.70
2016,07,22,03,06,19.80
2016,07,22,03,07,19.80
2016,07,22,03,08,19.80
2016,07,22,03,09,19.80
2016,07,22,03,10,19.80
2016,07,22,03,11,19.80
2016,07,22,03,12,19.80
2016,07,22,03,13,19.90
2016,07,22,03,14,19.90
2016,07,22,03,15,19.90
2016,07,22,03,16,20.00
2016,07,22,03,17,20.00
2016,07,22,03,18,20.00
2016,07,22,03,19,20.10
2016,07,22,03,20,20.20
2016,07,22,03,21,20.20
2016,07,22,03,22,20.30
2016,07,22,03,23,20.30
2016,07,22,03,24,20.30
2016,07,22,03,25,20.40
2016,07,22,03,26,20.40
2016,07,22,03,27,20.40
2016,07,22,03,28,20.40
2016,07,22,03,29,20.40
2016,07,22,03,30,20.40
2016,07,22,03,31,20.40
2016,07,22,03,32,20.40
2016,07,22,03,33,20.40
2016,07,22,03,34,20.40
2016,07,22,03,35,20.40
2016,07,22,03,36,20.40
2016,07,22,03,37,20.40
2016,07,22,03,38,20.40
2016,07,22,03,39,20.30
2016,07,22,03,40,20.30
2016,07,22,03,41,20.30
2016,07,22,03,42,20.30
2016,07,22,03,43,20.30
2016,07,22,03,44,20.30
2016,07,22,03,45,20.30
2016,07,22,03,46,20.30
2016,07,22,03,47,20.30
2016,07,22,03,48,20.30
2016,07,22,03,49,20.30
2016,07,22,03,50,20.30
2016,07,22,03,51,20.30
2016,07,22,03,52,20.30
2016,07,22,03,53,20.30
2016,07,22,03,54,20.30
2016,07,22,03,55,20.30
2016,07,22,03,56,20.30
2016,07,22,03,57,20.30
2016,07,22,03,58,20.30
2016,07,22,03,59,20.30
2016,07,22,04,00,20.30
2016,07,22,04,01,20.30
2016,07,22,04,02,20.30
2016,07,22,04,03,20.30
2016,07,22,04,04,20.30
2016,07,22,04,05,20.30
2016,07,22,04,06,20.30
2016,07,22,04,07,20.30
2016,07,22,04,08,20.30
2016,07,22,04,09,20.30
2016,07,22,04,10,20.30
2016,07,22,04,11,20.30
2016,07,22,04,12,20.30
2016,07,22,04,13,20.30
2016,07,22,04,14,20.30
2016,07,22,04,15,20.20
2016,07,22,04,16,20.20
2016,07,22,04,17,20.20
2016,07,22,04,18,20.20
2016,07,22,04,19,20.20
2016,07,22,04,20,20.20
2016,07,22,04,21,20.20
2016,07,22,04,22,20.10
2016,07,22,04,23,20.10
2016,07,22,04,24,20.10
2016,07,22,04,25,20.00
2016,07,22,04,26,20.00
2016,07,22,04,27,20.00
2016,07,22,04,28,19.90
2016,07,22,04,29,19.90
2016,07,22,04,30,19.90
2016,07,22,04,31,19.80
2016,07,22,04,32,19.80
2016,07,22,04,33,19.80
2016,07,22,04,34,19.80
2016,07,22,04,35,19.70
2016,07,22,04,36,19.70
2016,07,22,04,37,19.70
2016,07,22,04,38,19.70
2016,07,22,04,39,19.70
2016,07,22,04,40,19.70
2016,07,22,04,41,19.70
2016,07,22,04,42,19.60
2016,07,22,04,43,19.60
2016,07,22,04,44,19.60
2016,07,22,04,45,19.60
2016,07,22,04,46,19.60
2016,07,22,04,47,19.60
2016,07,22,04,48,19.60
2016,07,22,04,49,19.50
2016,07,22,04,50,19.50
2016,07,22,04,51,19.60
2016,07,22,04,52,19.50
2016,07,22,04,53,19.50
2016,07,22,04,54,19.50
2016,07,22,04,55,19.50
2016,07,22,04,56,19.50
2016,07,22,04,57,19.50
2016,07,22,04,58,19.50
2016,07,22,04,59,19.50
2016,07,22,05,00,19.50
2016,07,22,05,01,19.40
2016,07,22,05,02,19.40
2016,07,22,05,03,19.40
2016,07,22,05,04,19.40
2016,07,22,05,05,19.40
2016,07,22,05,06,19.40
2016,07,22,05,07,19.40
2016,07,22,05,08,19.40
2016,07,22,05,09,19.30
2016,07,22,05,10,19.30
2016,07,22,05,11,19.30
2016,07,22,05,12,19.30
2016,07,22,05,13,19.30
2016,07,22,05,14,19.30
2016,07,22,05,15,19.20
2016,07,22,05,16,19.20
2016,07,22,05,17,19.20
2016,07,22,05,18,19.20
2016,07,22,05,19,19.10
2016,07,22,05,20,19.10
2016,07,22,05,21,19.10
2016,07,22,05,22,19.10
2016,07,22,05,23,19.10
2016,07,22,05,24,19.10
2016,07,22,05,25,19.10
2016,07,22,05,26,19.10
2016,07,22,05,27,19.00
2016,07,22,05,28,19.00
2016,07,22,05,29,18.90
2016,07,22,05,30,18.90
2016,07,22,05,31,18.90
2016,07,22,05,32,18.90
2016,07,22,05,33,18.90
2016,07,22,05,34,18.90
2016,07,22,05,35,18.80
2016,07,22,05,36,18.80
2016,07,22,05,37,18.80
2016,07,22,05,38,18.80
2016,07,22,05,39,18.70
2016,07,22,05,40,18.70
2016,07,22,05,41,18.70
2016,07,22,05,42,18.70
2016,07,22,05,43,18.60
2016,07,22,05,44,18.60
2016,07,22,05,45,18.60
2016,07,22,05,46,18.60
2016,07,22,05,47,18.60
2016,07,22,05,48,18.60
2016,07,22,05,49,18.60
2016,07,22,05,50,18.60
2016,07,22,05,51,18.60
2016,07,22,05,52,18.60
2016,07,22,05,53,18.60
2016,07,22,05,54,18.60
2016,07,22,05,55,18.60
2016,07,22,05,56,18.60
2016,07,22,05,57,18.60
2016,07,22,05,58,18.60
2016,07,22,05,59,18.60
2016,07,22,06,00,18.50
2016,07,22,06,01,18.50
2016,07,22,06,02,18.50
2016,07,22,06,03,18.50
2016,07,22,06,04,18.50
2016,07,22,06,05,18.50
2016,07,22,06,06,18.50
2016,07,22,06,07,18.60
2016,07,22,06,08,18.60
2016,07,22,06,09,18.60
2016,07,22,06,10,18.60
2016,07,22,06,11,18.60
2016,07,22,06,12,18.60
2016,07,22,06,13,18.60
2016,07,22,06,14,18.60
2016,07,22,06,15,18.50
2016,07,22,06,16,18.50
2016,07,22,06,17,18.50
2016,07,22,06,18,18.50
2016,07,22,06,19,18.40
2016,07,22,06,20,18.40
2016,07,22,06,21,18.40
2016,07,22,06,22,18.40
2016,07,22,06,23,18.30
2016,07,22,06,24,18.30
2016,07,22,06,25,18.30
2016,07,22,06,26,18.30
2016,07,22,06,27,18.30
2016,07,22,06,28,18.20
2016,07,22,06,29,18.20
2016,07,22,06,30,18.20
2016,07,22,06,31,18.20
2016,07,22,06,32,18.20
2016,07,22,06,33,18.20
2016,07,22,06,34,18.20
2016,07,22,06,35,18.20
2016,07,22,06,36,18.20
2016,07,22,06,37,18.20
2016,07,22,06,38,18.20
2016,07,22,06,39,18.20
2016,07,22,06,40,18.20
2016,07,22,06,41,18.20
2016,07,22,06,42,18.20
2016,07,22,06,43,18.20
2016,07,22,06,44,18.20
2016,07,22,06,45,18.20
2016,07,22,06,46,18.20
2016,07,22,06,47,18.10
2016,07,22,06,48,18.10
2016,07,22,06,49,18.10
2016,07,22,06,50,18.10
2016,07,22,06,51,18.10
2016,07,22,06,52,18.00
2016,07,22,06,53,18.00
2016,07,22,06,54,18.00
2016,07,22,06,55,18.00
2016,07,22,06,56,18.00
2016,07,22,06,57,18.00
2016,07,22,06,58,17.90
2016,07,22,06,59,17.90
2016,07,22,07,00,17.90
2016,07,22,07,01,17.90
2016,07,22,07,02,17.90
2016,07,22,07,03,17.90
2016,07,22,07,04,17.90
2016,07,22,07,05,17.90
2016,07,22,07,06,17.90
2016,07,22,07,07,17.90
2016,07,22,07,08,17.90
2016,07,22,07,09,17.90
2016,07,22,07,10,17.90
2016,07,22,07,11,17.80
2016,07,22,07,12,17.80
2016,07,22,07,13,17.80
2016,07,22,07,14,17.80
2016,07,22,07,15,17.80
2016,07,22,07,16,17.80
2016,07,22,07,17,17.80
2016,07,22,07,18,17.80
2016,07,22,07,19,17.80
2016,07,22,07,20,17.80
2016,07,22,07,21,17.80
2016,07,22,07,22,17.80
2016,07,22,07,23,17.80
2016,07,22,07,24,17.80
2016,07,22,07,25,17.80
2016,07,22,07,26,17.80
2016,07,22,07,27,17.80
2016,07,22,07,28,17.80
2016,07,22,07,29,17.80
2016,07,22,07,30,17.80
2016,07,22,07,31,17.90
2016,07,22,07,32,17.90
2016,07,22,07,33,17.90
2016,07,22,07,34,17.90
2016,07,22,07,35,17.90
2016,07,22,07,36,17.90
2016,07,22,07,37,18.00
2016,07,22,07,38,18.00
2016,07,22,07,39,18.10
2016,07,22,07,40,18.20
2016,07,22,07,41,18.20
2016,07,22,07,42,18.30
2016,07,22,07,43,18.30
2016,07,22,07,44,18.40
2016,07,22,07,45,18.40
2016,07,22,07,46,18.40
2016,07,22,07,47,18.50
2016,07,22,07,48,18.50
2016,07,22,07,49,18.50
2016,07,22,07,50,18.60
2016,07,22,07,51,18.60
2016,07,22,07,52,18.70
2016,07,22,07,53,18.70
2016,07,22,07,54,18.70
2016,07,22,07,55,18.80
2016,07,22,07,56,18.80
2016,07,22,07,57,18.80
2016,07,22,07,58,18.80
2016,07,22,07,59,18.80
2016,07,22,08,00,18.80
2016,07,22,08,01,18.80
2016,07,22,08,02,18.80
2016,07,22,08,03,18.80
2016,07,22,08,04,18.90
2016,07,22,08,05,18.90
2016,07,22,08,06,18.90
2016,07,22,08,07,18.90
2016,07,22,08,08,18.90
2016,07,22,08,09,18.90
2016,07,22,08,10,19.00
2016,07,22,08,11,19.00
2016,07,22,08,12,19.00
2016,07,22,08,13,19.00
2016,07,22,08,14,19.00
2016,07,22,08,15,19.00
2016,07,22,08,16,19.00
2016,07,22,08,17,19.00
2016,07,22,08,18,19.10
2016,07,22,08,19,19.10
2016,07,22,08,20,19.10
2016,07,22,08,21,19.10
2016,07,22,08,22,19.20
2016,07,22,08,23,19.20
2016,07,22,08,24,19.20
2016,07,22,08,25,19.20
2016,07,22,08,26,19.20
2016,07,22,08,27,19.20
2016,07,22,08,28,19.30
2016,07,22,08,29,19.30
2016,07,22,08,30,19.30
2016,07,22,08,31,19.30
2016,07,22,08,32,19.30
2016,07,22,08,33,19.40
2016,07,22,08,34,19.50
2016,07,22,08,35,19.50
2016,07,22,08,36,19.60
2016,07,22,08,37,19.60
2016,07,22,08,38,19.70
2016,07,22,08,39,19.70
2016,07,22,08,40,19.70
2016,07,22,08,41,19.70
2016,07,22,08,42,19.80
2016,07,22,08,43,19.80
2016,07,22,08,44,19.90
2016,07,22,08,45,19.90
2016,07,22,08,46,20.00
2016,07,22,08,47,20.00
2016,07,22,08,48,20.00
2016,07,22,08,49,20.00
2016,07,22,08,50,20.00
2016,07,22,08,51,20.00
2016,07,22,08,52,20.10
2016,07,22,08,53,20.10
2016,07,22,08,54,20.10
2016,07,22,08,55,20.10
2016,07,22,08,56,20.10
2016,07,22,08,57,20.10
2016,07,22,08,58,20.20
2016,07,22,08,59,20.20
2016,07,22,09,00,20.30
2016,07,22,09,01,20.30
2016,07,22,09,02,20.30
2016,07,22,09,03,20.30
2016,07,22,09,04,20.30
2016,07,22,09,05,20.30
2016,07,22,09,06,20.30
2016,07,22,09,07,20.30
2016,07,22,09,08,20.40
2016,07,22,09,09,20.40
2016,07,22,09,10,20.40
2016,07,22,09,11,20.50
2016,07,22,09,12,20.50
2016,07,22,09,13,20.40
2016,07,22,09,14,20.40
2016,07,22,09,15,20.40
2016,07,22,09,16,20.40
2016,07,22,09,17,20.50
2016,07,22,09,18,20.50
2016,07,22,09,19,20.50
2016,07,22,09,20,20.50
2016,07,22,09,21,20.40
2016,07,22,09,22,20.50
2016,07,22,09,23,20.50
2016,07,22,09,24,20.50
2016,07,22,09,25,20.50
2016,07,22,09,26,20.60
2016,07,22,09,27,20.60
2016,07,22,09,28,20.70
2016,07,22,09,29,20.80
2016,07,22,09,30,20.80
2016,07,22,09,31,20.80
2016,07,22,09,32,20.80
2016,07,22,09,33,20.80
2016,07,22,09,34,20.90
2016,07,22,09,35,20.90
2016,07,22,09,36,20.90
2016,07,22,09,37,20.90
2016,07,22,09,38,20.90
2016,07,22,09,39,20.90
2016,07,22,09,40,20.90
2016,07,22,09,41,21.00
2016,07,22,09,42,21.00
2016,07,22,09,43,21.00
2016,07,22,09,44,21.00
2016,07,22,09,45,20.90
2016,07,22,09,46,20.90
2016,07,22,09,47,20.90
2016,07,22,09,48,20.90
2016,07,22,09,49,21.00
2016,07,22,09,50,21.00
2016,07,22,09,51,21.10
2016,07,22,09,52,21.10
2016,07,22,09,53,21.10
2016,07,22,09,54,21.10
2016,07,22,09,55,21.20
2016,07,22,09,56,21.20
2016,07,22,09,57,21.20
2016,07,22,09,58,21.30
2016,07,22,09,59,21.30
2016,07,22,10,00,21.30
2016,07,22,10,01,21.30
2016,07,22,10,02,21.20
2016,07,22,10,03,21.20
2016,07,22,10,04,21.20
2016,07,22,10,05,21.20
2016,07,22,10,06,21.20
2016,07,22,10,07,21.20
2016,07,22,10,08,21.20
2016,07,22,10,09,21.20
2016,07,22,10,10,21.20
2016,07,22,10,11,21.20
2016,07,22,10,12,21.20
2016,07,22,10,13,21.10
2016,07,22,10,14,21.10
2016,07,22,10,15,21.20
2016,07,22,10,16,21.20
2016,07,22,10,17,21.20
2016,07,22,10,18,21.30
2016,07,22,10,19,21.30
2016,07,22,10,20,21.40
2016,07,22,10,21,21.40
2016,07,22,10,22,21.40
2016,07,22,10,23,21.50
2016,07,22,10,24,21.40
2016,07,22,10,25,21.30
2016,07,22,10,26,21.30
2016,07,22,10,27,21.20
2016,07,22,10,28,21.10
2016,07,22,10,29,21.10
2016,07,22,10,30,21.10
2016,07,22,10,31,21.10
2016,07,22,10,32,21.20
2016,07,22,10,33,21.20
2016,07,22,10,34,21.20
2016,07,22,10,35,21.20
2016,07,22,10,36,21.10
2016,07,22,10,37,21.10
2016,07,22,10,38,21.10
2016,07,22,10,39,21.10
2016,07,22,10,40,21.20
2016,07,22,10,41,21.20
2016,07,22,10,42,21.20
2016,07,22,10,43,21.20
2016,07,22,10,44,21.20
2016,07,22,10,45,21.30
2016,07,22,10,46,21.30
2016,07,22,10,47,21.20
2016,07,22,10,48,21.20
2016,07,22,10,49,21.20
2016,07,22,10,50,21.20
2016,07,22,10,51,21.10
2016,07,22,10,52,21.10
2016,07,22,10,53,21.10
2016,07,22,10,54,21.10
2016,07,22,10,55,21.10
2016,07,22,10,56,21.20
2016,07,22,10,57,21.20
2016,07,22,10,58,21.20
2016,07,22,10,59,21.30
2016,07,22,11,00,21.30
2016,07,22,11,01,21.30
2016,07,22,11,02,21.30
2016,07,22,11,03,21.30
2016,07,22,11,04,21.40
2016,07,22,11,05,21.50
2016,07,22,11,06,21.50
2016,07,22,11,07,21.60
2016,07,22,11,08,21.70
2016,07,22,11,09,21.70
2016,07,22,11,10,21.80
2016,07,22,11,11,21.80
2016,07,22,11,12,21.80
2016,07,22,11,13,21.70
2016,07,22,11,14,21.70
2016,07,22,11,15,21.70
2016,07,22,11,16,21.80
2016,07,22,11,17,21.90
2016,07,22,11,18,21.90
2016,07,22,11,19,21.90
2016,07,22,11,20,21.90
2016,07,22,11,21,21.90
2016,07,22,11,22,22.00
2016,07,22,11,23,22.00
2016,07,22,11,24,22.00
2016,07,22,11,25,22.00
2016,07,22,11,26,22.00
2016,07,22,11,27,22.00
2016,07,22,11,28,22.00
2016,07,22,11,29,22.00
2016,07,22,11,30,22.00
2016,07,22,11,31,21.90
2016,07,22,11,32,21.80
2016,07,22,11,33,21.80
2016,07,22,11,34,21.80
2016,07,22,11,35,21.80
2016,07,22,11,36,21.80
2016,07,22,11,37,21.80
2016,07,22,11,38,21.90
2016,07,22,11,39,21.90
2016,07,22,11,40,21.90
2016,07,22,11,41,21.90
2016,07,22,11,42,22.00
2016,07,22,11,43,22.00
2016,07,22,11,44,22.10
2016,07,22,11,45,22.10
2016,07,22,11,46,22.20
2016,07,22,11,47,22.30
2016,07,22,11,48,22.30
2016,07,22,11,49,22.40
2016,07,22,11,50,22.50
2016,07,22,11,51,22.60
2016,07,22,11,52,22.60
2016,07,22,11,53,22.60
2016,07,22,11,54,22.60
2016,07,22,11,55,22.60
2016,07,22,11,56,22.60
2016,07,22,11,57,22.50
2016,07,22,11,58,22.50
2016,07,22,11,59,22.50
2016,07,22,12,00,22.50
2016,07,22,12,01,22.50
2016,07,22,12,02,22.50
2016,07,22,12,03,22.50
2016,07,22,12,04,22.50
2016,07,22,12,05,22.50
2016,07,22,12,06,22.50
2016,07,22,12,07,22.50
2016,07,22,12,08,22.60
2016,07,22,12,09,22.60
2016,07,22,12,10,22.70
2016,07,22,12,11,22.70
2016,07,22,12,12,22.70
2016,07,22,12,13,22.80
2016,07,22,12,14,22.80
2016,07,22,12,15,22.80
2016,07,22,12,16,22.80
2016,07,22,12,17,22.80
2016,07,22,12,18,22.80
2016,07,22,12,19,22.70
2016,07,22,12,20,22.70
2016,07,22,12,21,22.70
2016,07,22,12,22,22.60
2016,07,22,12,23,22.50
2016,07,22,12,24,22.50
2016,07,22,12,25,22.50
2016,07,22,12,26,22.60
2016,07,22,12,27,22.60
2016,07,22,12,28,22.70
2016,07,22,12,29,22.80
2016,07,22,12,30,22.80
2016,07,22,12,31,22.80
2016,07,22,12,32,22.90
2016,07,22,12,33,22.90
2016,07,22,12,34,23.00
2016,07,22,12,35,23.10
2016,07,22,12,36,23.20
2016,07,22,12,37,23.20
2016,07,22,12,38,23.30
2016,07,22,12,39,23.30
2016,07,22,12,40,23.30
2016,07,22,12,41,23.30
2016,07,22,12,42,23.30
2016,07,22,12,43,23.20
2016,07,22,12,44,23.20
2016,07,22,12,45,23.10
2016,07,22,12,46,23.00
2016,07,22,12,47,22.90
2016,07,22,12,48,22.90
2016,07,22,12,49,22.80
2016,07,22,12,50,22.80
2016,07,22,12,51,22.80
2016,07,22,12,52,22.80
2016,07,22,12,53,22.80
2016,07,22,12,54,22.90
2016,07,22,12,55,22.90
2016,07,22,12,56,23.00
2016,07,22,12,57,23.00
2016,07,22,12,58,23.00
2016,07,22,12,59,23.00
2016,07,22,13,00,23.00
2016,07,22,13,01,23.00
2016,07,22,13,02,23.00
2016,07,22,13,03,23.00
2016,07,22,13,04,23.00
2016,07,22,13,05,23.00
2016,07,22,13,06,23.00
2016,07,22,13,07,23.00
2016,07,22,13,08,23.00
2016,07,22,13,09,23.10
2016,07,22,13,10,23.20
2016,07,22,13,11,23.30
2016,07,22,13,12,23.30
2016,07,22,13,13,23.30
2016,07,22,13,14,23.40
2016,07,22,13,15,23.50
2016,07,22,13,16,23.50
2016,07,22,13,17,23.50
2016,07,22,13,18,23.50
2016,07,22,13,19,23.50
2016,07,22,13,20,23.50
2016,07,22,13,21,23.50
2016,07,22,13,22,23.50
2016,07,22,13,23,23.60
2016,07,22,13,24,23.70
2016,07,22,13,25,23.70
2016,07,22,13,26,23.80
2016,07,22,13,27,23.90
2016,07,22,13,28,23.90
2016,07,22,13,29,23.90
2016,07,22,13,30,23.80
2016,07,22,13,31,23.80
2016,07,22,13,32,23.80
2016,07,22,13,33,23.70
2016,07,22,13,34,23.70
2016,07,22,13,35,23.60
2016,07,22,13,36,23.50
2016,07,22,13,37,23.40
2016,07,22,13,38,23.30
2016,07,22,13,39,23.20
2016,07,22,13,40,23.20
2016,07,22,13,41,23.20
2016,07,22,13,42,23.30
2016,07,22,13,43,23.30
2016,07,22,13,44,23.30
2016,07,22,13,45,23.30
2016,07,22,13,46,23.30
2016,07,22,13,47,23.30
2016,07,22,13,48,23.30
2016,07,22,13,49,23.40
2016,07,22,13,50,23.50
2016,07,22,13,51,23.60
2016,07,22,13,52,23.70
2016,07,22,13,53,23.70
2016,07,22,13,54,23.80
2016,07,22,13,55,23.80
2016,07,22,13,56,23.90
2016,07,22,13,57,23.90
2016,07,22,13,58,24.00
2016,07,22,13,59,24.00
2016,07,22,14,00,24.00
2016,07,22,14,01,23.90
2016,07,22,14,02,23.80
2016,07,22,14,03,23.60
2016,07,22,14,04,23.60
2016,07,22,14,05,23.60
2016,07,22,14,06,23.60
2016,07,22,14,07,23.70
2016,07,22,14,08,23.70
2016,07,22,14,09,23.70
2016,07,22,14,10,23.70
2016,07,22,14,11,23.60
2016,07,22,14,12,23.60
2016,07,22,14,13,23.60
2016,07,22,14,14,23.60
2016,07,22,14,15,23.60
2016,07,22,14,16,23.50
2016,07,22,14,17,23.40
2016,07,22,14,18,23.40
2016,07,22,14,19,23.40
2016,07,22,14,20,23.40
2016,07,22,14,21,23.50
2016,07,22,14,22,23.50
2016,07,22,14,23,23.60
2016,07,22,14,24,23.60
2016,07,22,14,25,23.70
2016,07,22,14,26,23.90
2016,07,22,14,27,23.90
2016,07,22,14,28,24.00
2016,07,22,14,29,23.90
2016,07,22,14,30,23.90
2016,07,22,14,31,23.80
2016,07,22,14,32,23.70
2016,07,22,14,33,23.70
2016,07,22,14,34,23.70
2016,07,22,14,35,23.70
2016,07,22,14,36,23.70
2016,07,22,14,37,23.70
2016,07,22,14,38,23.70
2016,07,22,14,39,23.70
2016,07,22,14,40,23.70
2016,07,22,14,41,23.70
2016,07,22,14,42,23.80
2016,07,22,14,43,23.90
2016,07,22,14,44,24.00
2016,07,22,14,45,24.00
2016,07,22,14,46,24.10
2016,07,22,14,47,24.10
2016,07,22,14,48,24.20
2016,07,22,14,49,24.20
2016,07,22,14,50,24.20
2016,07,22,14,51,24.30
2016,07,22,14,52,24.20
2016,07,22,14,53,24.20
2016,07,22,14,54,24.10
2016,07,22,14,55,24.00
2016,07,22,14,56,23.90
2016,07,22,14,57,23.90
2016,07,22,14,58,23.80
2016,07,22,14,59,23.80
2016,07,22,15,00,23.80
2016,07,22,15,01,23.70
2016,07,22,15,02,23.70
2016,07,22,15,03,23.70
2016,07,22,15,04,23.70
2016,07,22,15,05,23.70
2016,07,22,15,06,23.70
2016,07,22,15,07,23.70
2016,07,22,15,08,23.80
2016,07,22,15,09,23.80
2016,07,22,15,10,23.80
2016,07,22,15,11,23.80
2016,07,22,15,12,23.70
2016,07,22,15,13,23.60
2016,07,22,15,14,23.60
2016,07,22,15,15,23.60
2016,07,22,15,16,23.60
2016,07,22,15,17,23.70
2016,07,22,15,18,23.80
2016,07,22,15,19,23.80
2016,07,22,15,20,23.80
2016,07,22,15,21,23.80
2016,07,22,15,22,23.80
2016,07,22,15,23,23.70
2016,07,22,15,24,23.70
2016,07,22,15,25,23.50
2016,07,22,15,26,23.50
2016,07,22,15,27,23.40
2016,07,22,15,28,23.40
2016,07,22,15,29,23.40
2016,07,22,15,30,23.40
2016,07,22,15,31,23.40
2016,07,22,15,32,23.40
2016,07,22,15,33,23.40
2016,07,22,15,34,23.50
2016,07,22,15,35,23.60
2016,07,22,15,36,23.60
2016,07,22,15,37,23.60
2016,07,22,15,38,23.60
2016,07,22,15,39,23.50
2016,07,22,15,40,23.50
2016,07,22,15,41,23.50
2016,07,22,15,42,23.40
2016,07,22,15,43,23.50
2016,07,22,15,44,23.60
2016,07,22,15,45,23.60
2016,07,22,15,46,23.60
2016,07,22,15,47,23.70
2016,07,22,15,48,23.70
2016,07,22,15,49,23.80
2016,07,22,15,50,23.90
2016,07,22,15,51,23.90
2016,07,22,15,52,23.90
2016,07,22,15,53,23.80
2016,07,22,15,54,23.80
2016,07,22,15,55,23.80
2016,07,22,15,56,23.80
2016,07,22,15,57,23.80
2016,07,22,15,58,23.70
2016,07,22,15,59,23.70
2016,07,22,16,00,23.60
2016,07,22,16,01,23.50
2016,07,22,16,02,23.40
2016,07,22,16,03,23.30
2016,07,22,16,04,23.30
2016,07,22,16,05,23.30
2016,07,22,16,06,23.40
2016,07,22,16,07,23.40
2016,07,22,16,08,23.50
2016,07,22,16,09,23.60
2016,07,22,16,10,23.70
2016,07,22,16,11,23.70
2016,07,22,16,12,23.70
2016,07,22,16,13,23.70
2016,07,22,16,14,23.70
2016,07,22,16,15,23.70
2016,07,22,16,16,23.70
2016,07,22,16,17,23.70
2016,07,22,16,18,23.70
2016,07,22,16,19,23.70
2016,07,22,16,20,23.70
2016,07,22,16,21,23.80
2016,07,22,16,22,23.70
2016,07,22,16,23,23.70
2016,07,22,16,24,23.70
2016,07,22,16,25,23.70
2016,07,22,16,26,23.70
2016,07,22,16,27,23.70
2016,07,22,16,28,23.80
2016,07,22,16,29,23.80
2016,07,22,16,30,23.70
2016,07,22,16,31,23.70
2016,07,22,16,32,23.70
2016,07,22,16,33,23.60
2016,07,22,16,34,23.60
2016,07,22,16,35,23.60
2016,07,22,16,36,23.60
2016,07,22,16,37,23.60
2016,07,22,16,38,23.60
2016,07,22,16,39,23.60
2016,07,22,16,40,23.60
2016,07,22,16,41,23.50
2016,07,22,16,42,23.50
2016,07,22,16,43,23.40
2016,07,22,16,44,23.30
2016,07,22,16,45,23.30
2016,07,22,16,46,23.30
2016,07,22,16,47,23.30
2016,07,22,16,48,23.30
2016,07,22,16,49,23.30
2016,07,22,16,50,23.20
2016,07,22,16,51,23.20
2016,07,22,16,52,23.20
2016,07,22,16,53,23.30
2016,07,22,16,54,23.40
2016,07,22,16,55,23.50
2016,07,22,16,56,23.50
2016,07,22,16,57,23.50
2016,07,22,16,58,23.40
2016,07,22,16,59,23.30
2016,07,22,17,00,23.30
2016,07,22,17,01,23.30
2016,07,22,17,02,23.30
2016,07,22,17,03,23.40
2016,07,22,17,04,23.40
2016,07,22,17,05,23.40
2016,07,22,17,06,23.40
2016,07,22,17,07,23.40
2016,07,22,17,08,23.40
2016,07,22,17,09,23.40
2016,07,22,17,10,23.50
2016,07,22,17,11,23.50
2016,07,22,17,12,23.50
2016,07,22,17,13,23.50
2016,07,22,17,14,23.50
2016,07,22,17,15,23.50
2016,07,22,17,16,23.50
2016,07,22,17,17,23.50
2016,07,22,17,18,23.40
2016,07,22,17,19,23.30
2016,07,22,17,20,23.20
2016,07,22,17,21,23.20
2016,07,22,17,22,23.10